Regional Weather Roundup
Issued by NWS Sioux Falls, SD

Home | Current Version | Previous Version | Graphics & Text | Print | Product List | Glossary On
Versions: 1 2 3 4 5 6 7 8 9 10 11 12 13 14 15 16 17 18 19 20 21 22 23 24 25 26 27 28 29 30 31 32 33 34 35 36 37 38 39 40 41 42 43 44 45 46 47 48 49 50
000
ASUS43 KFSD 211210
RWRFSD

WEATHER ROUNDUP FOR SE SOUTH DAKOTA/SW MINNESOTA/NW IOWA
NATIONAL WEATHER SERVICE SIOUX FALLS SD
700 AM CDT THU AUG 21 2014

NOTE: "FAIR" INDICATES FEW OR NO CLOUDS BELOW 12,000 FEET WITH NO
SIGNIFICANT WEATHER AND OR OBSTRUCTIONS TO VISIBILITY.


SDZ038>040-050-052>070-211300-
SOUTHEAST SOUTH DAKOTA

CITY           SKY/WX    TMP DP  RH WIND       PRES   REMARKS
CHAMBERLAIN    CLOUDY    68  68 100 NW9       29.79R FOG
6HR MIN TEMP:  68; 6HR MAX TEMP:  73;

HURON          PTCLDY    67  65  93 NW8       29.75R
6HR MIN TEMP:  67; 6HR MAX TEMP:  74;

MADISON        CLOUDY    72  72 100 SE6       29.74R
MITCHELL       FOG       70  70 100 NW7       29.74R VSB 1/4
6HR MIN TEMP:  68; 6HR MAX TEMP:  76;

SIOUX FALLS    MOCLDY    73  70  90 W3        29.74R
6HR MIN TEMP:  73; 6HR MAX TEMP:  77;

WINNER         CLOUDY    69  68  96 NW13      29.82R FOG
YANKTON        CLOUDY    77  66  69 S10       29.74R
$$

MNZ071-072-080-081-089-090-097-098-211300-
SOUTHWEST MINNESOTA

CITY           SKY/WX    TMP DP  RH WIND       PRES   REMARKS
FAIRMONT       CLOUDY    70  64  83 MISG      29.79F
JACKSON        MOCLDY    70  66  88 SE6       29.79R
LUVERNE        PTCLDY    72  70  94 CALM      29.74R FOG
MARSHALL       CLEAR     70  66  88 SE8       29.72S
6HR MIN TEMP:  68; 6HR MAX TEMP:  72; 6HR PCP:  0.19;

MONTEVIDEO     CLEAR     68  68 100 SE9       29.74R
PIPESTONE      CLOUDY    72  70  94 SE5       29.75S
REDWOOD FALLS  PTCLDY    71  69  93 E8        29.74F
TRACY          MOCLDY    70  69  95 SE8       29.75F
WINDOM         RAIN      72  70  94 SE8       29.77R
WORTHINGTON    PTCLDY    72  12  10 S7        29.78R
$$

IAZ001>003-012>014-020>022-031-032-NEZ013-014-SDZ071-211300-
NORTHWEST IOWA

CITY           SKY/WX    TMP DP  RH WIND       PRES   REMARKS
CHEROKEE       PTCLDY    74  71  90 S10       29.77R
DENISON        CLOUDY    75  70  83 S10       29.78R
ESTHERVILLE    CLOUDY    71  69  93 E5        29.79R
LE MARS        MOCLDY    75  70  83 S14       29.77R
ORANGE CITY    MOCLDY    75  70  83 SW7       29.77R
SHELDON        PTCLDY    73  72  94 VRB7      29.76R
SIOUX CITY     CLOUDY    76  67  73 S5        29.77R
6HR MIN TEMP:  76; 6HR MAX TEMP:  78;

SPENCER        MOCLDY    75  69  81 SW8       29.78R
6HR MIN TEMP:  72; 6HR MAX TEMP:  76; 6HR PCP:  0.01;

STORM LAKE     MOCLDY    75  73  94 SW12      29.81R
$$

ABBREVIATIONS USED IN REMARKS
   TC - TEMPERATURE IN CELSIUS
  WCI - WIND CHILL INDEX
   HX - HEAT INDEX
  VSB - VISIBILITY



USA.gov is the U.S. government's official web portal to all federal, state and local government web resources and services.